Flag for Uruguay Weather past 2 weeks in Melo, Uruguay

Now
54 °F

Clear.


Feels Like: 54 °F
Forecast: 46 / 69 °F
Wind: 2 mph from Northeast

Location: Pelotas Airport

Current Time: Sep 16, 2014 at 11:08:38 PM

Latest Report: Sep 16, 2014 at 10:00 PM


Visibility: 10 mi

Pressure: 30.12 "Hg

Humidity: 94%

Dew point: 52 °F

Location of MeloLocation

Historic Weather in Melo — Graph

°F

Melo temperature yesterday

Maximum temperature yesterday: 72 °F (at 11:00 AM)
Minimum temperature yesterday: 59 °F (at 11:00 PM)
Average temperature yesterday: 65 °F

Past Weeks' High & Low Weather Summary

 TemperatureHumidityPressure
High88 °F (Sep 9, 2:00 PM)100% (Sep 1, 10:00 PM)30.27 "Hg (Sep 1, 10:00 PM)
Low48 °F (Sep 8, 5:00 AM)40% (Sep 7, 12:00 PM)29.56 "Hg (Sep 9, 8:00 PM)
Average62 °F86%30.01 "Hg
* Reported Sep 1 10:00 PM — Sep 16 10:00 PM, Melo, Weather by CustomWeather, © 2014

Note: Actual official high and low records may vary slightly from our data, if they occured in-between our weather recording intervals... More about our weather records

Advertising

Melo weather history for previous 24 hours

 ConditionsComfort  
Time TempWeatherWind HumidityBarometerVisibility
10:00 PM
Sep 16
54 °FClear.2 mph94%30.12 "Hg10 mi
9:00 PM54 °FClear.3 mph94%30.12 "Hg10 mi
8:00 PM55 °FClear.7 mph88%30.09 "Hg10 mi
7:00 PM55 °FPassing clouds.7 mph88%30.09 "HgN/A
6:00 PM61 °FPassing clouds.7 mph72%30.09 "HgN/A
5:00 PM64 °FPassing clouds.3 mph56%30.07 "HgN/A
4:00 PM66 °FScattered clouds.7 mph52%30.07 "HgN/A
3:00 PM63 °FScattered clouds.2 mph59%30.07 "HgN/A
2:00 PM64 °FPartly sunny.3 mph56%30.09 "HgN/A
1:00 PM63 °FPartly sunny.7 mph64%30.09 "HgN/A
12:00 PM61 °FPartly sunny.8 mph68%30.09 "HgN/A
11:00 AM61 °FOvercast.6 mph77%30.09 "HgN/A
10:00 AM59 °FMore clouds than sun.9 mph82%30.12 "HgN/A
9:00 AM57 °FOvercast.7 mph88%30.09 "HgN/A
8:00 AM55 °FPartly sunny.2 mph94%30.07 "HgN/A
7:00 AM55 °FPartly sunny.3 mph88%30.07 "HgN/A
6:00 AM55 °FPartly sunny.8 mph88%30.04 "HgN/A
5:00 AM55 °FPassing clouds.8 mph88%30.01 "HgN/A
4:00 AM55 °FPassing clouds.9 mph94%30.01 "HgN/A
3:00 AM57 °FPassing clouds.7 mph88%30.01 "HgN/A
2:00 AM57 °FPassing clouds.10 mph88%30.01 "HgN/A
1:00 AM59 °FPassing clouds.9 mph82%30.01 "HgN/A
12:00 AM59 °FPassing clouds.8 mph82%30.01 "HgN/A
11:00 PM
Sep 15
59 °FPassing clouds.9 mph88%30.01 "HgN/A
Weather by CustomWeather, © 2014

See weather overviewHow to use our weather pages